Coetivy Airport

Jump to: basic info | weather | runways | comments

Related pages: nearby airports | nearby navaids | notams | map

Basic information (top)

Codes: FSSC
Location: lon -7.134570, lat 56.278198, elev 10 ft / 3 m msl
Status: small_airport

Weather (top)

Current conditions for Diego Garcia Naval Support Facility 961nm (1,780km) E (rec'd 2015/04/28 13:55Z):

FJDG 281355Z 00000KT 9999 FEW020 SCT050 OVC080 26/24 A2985 RMK SLP115 P0004 T02570239

Airport forecast for Diego Garcia Naval Support Facility 961nm (1,780km) E (rec'd 2015/03/25 04:03Z):

TAF TAF FJDG 250400Z 2504/2610 31005KT 9999 FEW025 BKN110 BKN220 QNH2977INS 
      TEMPO 2601/2609 VRB15G25KT 9999 -TSRA SCT025CB BKN080 BKN200 TX31/2512Z TN26/2522Z

Runways (top)

13/31: 4,593 x 79 ft (1,400 x 24 m) — paved — not lighted — threshold 13 displaced 656 ft (200 m) — threshold 31 displaced 656 ft (200 m)

Latest comments (top)

No comments yet for Coetivy Airport

More... (top)

See also NOTAMs and nearby airports and navaids, or visit the Coetivy Airport page at the main OurAirports website..